Total_Precipitation_Accumulation
0.03 0.06 0.06 0.09 0.07 0.08 0.06 0.03 0.01 0.00 0.02 0.06 0.07 0.14 0.10 0.20 0.11 0.12 0.22 0.26 0.26 0.20 0.06 0.01 0.01 0.00 0.01 0.01 0.03 0.03 0.02 0.01 0.01 0.00 0.01 0.01 0.01 0.01 0.01 0.00 0.00 0.00 0.00
0.04 0.06 0.07 0.04 0.05 0.04 0.06 0.04 0.01 0.01 0.02 0.04 0.11 0.14 0.19 0.23 0.08 0.08 0.16 0.22 0.22 0.25 0.14 0.03 0.02 0.01 0.01 0.02 0.03 0.03 0.02 0.01 0.01 0.00 0.01 0.01 0.01 0.01 0.00 0.00 0.00 0.00 0.00
0.02 0.04 0.02 0.02 0.01 0.04 0.06 0.08 0.06 0.02 0.04 0.23 0.24 0.23 0.18 0.24 0.12 0.04 0.08 0.14 0.16 0.20 0.21 0.11 0.02 0.01 0.01 0.02 0.02 0.01 0.01 0.01 0.01 0.01 0.01 0.01 0.01 0.01 0.00 0.00 0.00 0.00 0.00
0.00 0.02 0.02 0.02 0.02 0.04 0.08 0.06 0.03 0.02 0.09 0.32 0.50 0.32 0.28 0.23 0.28 0.07 0.04 0.09 0.12 0.11 0.12 0.07 0.03 0.01 0.01 0.02 0.02 0.01 0.01 0.00 0.01 0.02 0.01 0.01 0.01 0.01 0.00 0.00 0.00 0.00 0.00
0.00 0.01 0.01 0.02 0.03 0.04 0.02 0.03 0.02 0.01 0.06 0.25 0.54 0.48 0.37 0.28 0.32 0.27 0.06 0.06 0.09 0.11 0.04 0.03 0.02 0.01 0.01 0.02 0.01 0.01 0.01 0.00 0.01 0.02 0.01 0.00 0.01 0.01 0.01 0.00 0.00 0.00 0.00
0.00 0.01 0.01 0.02 0.04 0.03 0.01 0.01 0.01 0.03 0.11 0.22 0.49 0.63 0.37 0.38 0.31 0.37 0.22 0.15 0.14 0.05 0.01 0.02 0.02 0.01 0.02 0.02 0.01 0.01 0.01 0.01 0.01 0.02 0.01 0.01 0.01 0.01 0.01 0.00 0.00 0.00 0.00
0.00 0.01 0.02 0.02 0.01 0.01 0.01 0.01 0.03 0.11 0.23 0.28 0.71 0.87 0.66 0.35 0.36 0.31 0.27 0.26 0.29 0.05 0.01 0.01 0.01 0.00 0.01 0.02 0.02 0.00 0.01 0.02 0.01 0.01 0.01 0.01 0.01 0.02 0.01 0.00 0.00 0.00 0.00
0.00 0.01 0.02 0.00 0.00 0.00 0.01 0.02 0.07 0.20 0.34 0.42 0.64 0.77 0.62 0.40 0.27 0.36 0.24 0.15 0.16 0.07 0.01 0.01 0.01 0.00 0.00 0.02 0.02 0.02 0.01 0.02 0.02 0.01 0.02 0.01 0.01 0.01 0.01 0.00 0.00 0.00 0.00
0.00 0.01 0.02 0.00 0.00 0.00 0.00 0.01 0.03 0.19 0.33 0.50 0.37 0.47 0.21 0.21 0.13 0.24 0.27 0.14 0.11 0.07 0.01 0.00 0.00 0.01 0.01 0.01 0.00 0.00 0.00 0.00 0.02 0.02 0.01 0.01 0.00 0.00 0.00 0.00 0.00 0.00 0.00
0.00 0.01 0.02 0.00 0.00 0.00 0.00 0.00 0.01 0.07 0.27 0.41 0.46 0.42 0.09 0.03 0.04 0.14 0.19 0.16 0.11 0.04 0.01 0.00 0.00 0.00 0.01 0.00 0.00 0.00 0.00 0.00 0.00 0.01 0.02 0.01 0.00 0.00 0.00 0.00 0.00 0.00 0.00
0.00 0.01 0.01 0.00 0.00 0.00 0.00 0.00 0.00 0.04 0.16 0.27 0.34 0.33 0.30 0.13 0.12 0.12 0.17 0.18 0.13 0.05 0.01 0.00 0.00 0.00 0.00 0.00 0.00 0.00 0.00 0.00 0.00 0.00 0.00 0.01 0.01 0.00 0.00 0.00 0.00 0.00 0.00
0.02 0.01 0.01 0.01 0.00 0.00 0.00 0.00 0.00 0.01 0.04 0.14 0.28 0.24 0.25 0.20 0.18 0.20 0.20 0.15 0.13 0.09 0.05 0.02 0.00 0.00 0.00 0.00 0.00 0.00 0.00 0.00 0.00 0.00 0.00 0.00 0.00 0.00 0.00 0.00 0.00 0.00 0.00
0.01 0.01 0.02 0.01 0.00 0.00 0.00 0.01 0.02 0.01 0.01 0.03 0.07 0.12 0.19 0.19 0.19 0.24 0.30 0.26 0.16 0.16 0.15 0.06 0.02 0.00 0.00 0.00 0.00 0.00 0.00 0.00 0.00 0.00 0.00 0.00 0.00 0.00 0.00 0.00 0.00 0.00 0.00
0.02 0.00 0.02 0.02 0.01 0.00 0.00 0.01 0.01 0.03 0.03 0.03 0.03 0.03 0.08 0.17 0.20 0.17 0.20 0.26 0.24 0.21 0.18 0.08 0.04 0.01 0.00 0.00 0.00 0.00 0.00 0.00 0.00 0.00 0.00 0.00 0.00 0.00 0.00 0.00 0.00 0.00 0.00
0.02 0.01 0.01 0.02 0.03 0.01 0.00 0.00 0.01 0.02 0.03 0.06 0.08 0.07 0.06 0.06 0.16 0.21 0.17 0.16 0.17 0.19 0.11 0.06 0.06 0.01 0.00 0.00 0.00 0.00 0.00 0.00 0.00 0.00 0.00 0.00 0.00 0.00 0.00 0.00 0.00 0.00 0.00
0.05 0.02 0.01 0.01 0.03 0.01 0.00 0.00 0.01 0.01 0.04 0.08 0.18 0.25 0.16 0.11 0.14 0.18 0.18 0.13 0.09 0.06 0.05 0.02 0.01 0.01 0.03 0.04 0.03 0.02 0.01 0.02 0.01 0.00 0.00 0.00 0.00 0.00 0.00 0.00 0.00 0.00 0.00
0.10 0.08 0.02 0.01 0.02 0.01 0.00 0.01 0.01 0.01 0.02 0.02 0.05 0.13 0.14 0.12 0.15 0.24 0.29 0.22 0.13 0.07 0.03 0.01 0.01 0.01 0.01 0.03 0.02 0.03 0.04 0.06 0.03 0.01 0.00 0.00 0.00 0.00 0.00 0.00 0.00 0.00 0.00
0.15 0.09 0.06 0.03 0.01 0.02 0.01 0.01 0.01 0.01 0.01 0.01 0.01 0.00 0.02 0.08 0.11 0.16 0.27 0.34 0.29 0.23 0.16 0.06 0.04 0.05 0.05 0.05 0.04 0.03 0.03 0.03 0.03 0.04 0.05 0.04 0.03 0.04 0.02 0.02 0.02 0.01 0.00
0.22 0.15 0.10 0.07 0.04 0.02 0.02 0.02 0.02 0.02 0.01 0.01 0.01 0.01 0.00 0.02 0.07 0.14 0.20 0.26 0.26 0.26 0.25 0.24 0.18 0.15 0.14 0.12 0.12 0.09 0.05 0.02 0.02 0.04 0.06 0.06 0.05 0.03 0.03 0.03 0.03 0.01 0.01
0.24 0.17 0.13 0.10 0.11 0.04 0.03 0.03 0.05 0.04 0.02 0.01 0.02 0.02 0.03 0.03 0.04 0.05 0.10 0.17 0.25 0.36 0.36 0.29 0.26 0.21 0.17 0.19 0.23 0.19 0.13 0.08 0.08 0.06 0.04 0.05 0.04 0.02 0.03 0.03 0.02 0.01 0.01
0.24 0.18 0.12 0.07 0.04 0.03 0.04 0.05 0.04 0.03 0.03 0.03 0.02 0.02 0.02 0.06 0.11 0.08 0.08 0.08 0.12 0.15 0.17 0.17 0.19 0.17 0.11 0.10 0.11 0.09 0.09 0.09 0.14 0.09 0.07 0.06 0.06 0.03 0.05 0.10 0.10 0.13 0.16
0.22 0.22 0.17 0.11 0.04 0.03 0.05 0.04 0.04 0.04 0.03 0.03 0.03 0.02 0.02 0.03 0.03 0.06 0.04 0.04 0.05 0.06 0.06 0.06 0.05 0.03 0.02 0.01 0.02 0.03 0.03 0.06 0.09 0.08 0.04 0.04 0.04 0.06 0.10 0.13 0.26 0.18 0.09
0.31 0.27 0.20 0.11 0.02 0.01 0.03 0.03 0.03 0.03 0.06 0.06 0.04 0.05 0.04 0.04 0.04 0.01 0.05 0.05 0.05 0.05 0.05 0.04 0.04 0.02 0.01 0.01 0.01 0.01 0.01 0.04 0.09 0.14 0.18 0.24 0.26 0.25 0.21 0.23 0.29 0.16 0.14
0.36 0.34 0.28 0.12 0.05 0.04 0.05 0.03 0.04 0.02 0.03 0.04 0.06 0.05 0.06 0.06 0.08 0.05 0.02 0.02 0.03 0.06 0.09 0.13 0.15 0.15 0.12 0.10 0.10 0.13 0.15 0.19 0.27 0.28 0.27 0.31 0.29 0.33 0.36 0.33 0.35 0.16 0.07
0.64 0.50 0.28 0.21 0.09 0.06 0.10 0.11 0.09 0.03 0.03 0.04 0.04 0.04 0.06 0.05 0.14 0.10 0.03 0.05 0.15 0.15 0.19 0.19 0.16 0.17 0.16 0.14 0.13 0.16 0.19 0.22 0.26 0.26 0.27 0.28 0.27 0.23 0.19 0.13 0.12 0.17 0.06
1.00 0.94 0.83 0.58 0.39 0.17 0.25 0.25 0.21 0.10 0.09 0.09 0.09 0.07 0.13 0.09 0.15 0.10 0.07 0.07 0.16 0.20 0.16 0.17 0.18 0.18 0.16 0.15 0.17 0.12 0.13 0.16 0.18 0.18 0.17 0.16 0.14 0.13 0.13 0.09 0.05 0.02 0.01